Weather History for KACY - March, 2014

Change the Weather History Date:

Friday, March 14, 2014

  Actual Average Record
Temperature  
Mean Temperature 32 °F 42 °F  
Max Temperature 43 °F 51 °F 77 °F (2012)
Min Temperature 20 °F 32 °F 12 °F (1888)
Degree Days  
Heating Degree Days 33 23  
Month to date heating degree days 429 353  
Since 1 July heating degree days 4292 3944  
Cooling Degree Days 0 0  
Month to date cooling degree days 0 0  
Year to date cooling degree days 0 0  
Moisture  
Dew Point 16 °F    
Average Humidity 46    
Maximum Humidity 67    
Minimum Humidity 25    
Precipitation  
Precipitation 0.00 in 0.14 in 1.57 in (1884)
Month to date precipitation 1.00 1.81  
Year to date precipitation 9.55 7.90  
Snow  
Snow 0.00 in 0.00 in 0.80 in (1993)
Month to date snowfall 5.5 0.8  
Since 1 July snowfall 33.7 15.9  
Snow Depth 0.00 in    
Sea Level Pressure  
Sea Level Pressure 30.15 in    
Wind  
Wind Speed 13 mph (SSW)    
Max Wind Speed 24 mph    
Max Gust Speed 33 mph    
Visibility 10 miles    
Events      
T = Trace of Precipitation, MM = Missing Value Source: NWS Daily Summary

Daily Weather History Graph

Daily Weather History Graph

Search for Another Location

Airport or City:

Trip Planner

Search our weather history database for the weather conditions in past years. The results will help you decide how hot, cold, wet, or windy it might be!

Date:

Astronomy

Mar. 14, 2014 Rise Set
Actual Time 7:11 AM EDT 7:04 PM EDT
Civil Twilight 6:44 AM EDT 7:30 PM EDT
Nautical Twilight 6:13 AM EDT 8:02 PM EDT
Astronomical Twilight 5:41 AM EDT 8:33 PM EDT
Moon 5:24 PM EDT (3/14) 5:49 AM EDT (3/14)
Length of Visible Light 12h 46m
Length of Day
11h 52m
Waxing Gibbous, 96% of the Moon is Illuminated
Mar 14
Waxing Gibbous
Mar 16
Full
Mar 23
Last Quarter
Mar 30
New
Apr 7
First Quarter

Hourly Weather History & Observations

Time (EDT) Temp. Windchill Dew Point Humidity Pressure Visibility Wind Dir Wind Speed Gust Speed Precip Events Conditions
12:54 AM 25.0 °F 15.5 °F 3.0 °F 39% 30.15 in 10.0 mi WNW 9.2 mph - N/A   Clear
1:54 AM 25.0 °F 17.1 °F 3.0 °F 39% 30.17 in 10.0 mi West 6.9 mph - N/A   Clear
2:54 AM 24.1 °F 17.0 °F 3.0 °F 40% 30.18 in 10.0 mi West 5.8 mph - N/A   Clear
3:54 AM 24.1 °F 17.0 °F 3.9 °F 42% 30.19 in 10.0 mi WSW 5.8 mph - N/A   Clear
4:54 AM 21.9 °F 17.2 °F 6.1 °F 51% 30.22 in 10.0 mi SW 3.5 mph - N/A   Clear
5:54 AM 21.0 °F 16.2 °F 6.1 °F 53% 30.24 in 10.0 mi SW 3.5 mph - N/A   Clear
6:54 AM 19.9 °F - 7.0 °F 57% 30.24 in 10.0 mi Calm Calm - N/A   Clear
7:54 AM 24.1 °F 19.7 °F 10.0 °F 55% 30.25 in 10.0 mi SW 3.5 mph - N/A   Overcast
8:54 AM 28.9 °F 21.9 °F 12.0 °F 49% 30.26 in 10.0 mi SSW 6.9 mph - N/A   Overcast
9:54 AM 32.0 °F 24.8 °F 12.9 °F 45% 30.26 in 10.0 mi South 8.1 mph - N/A   Overcast
10:54 AM 37.9 °F 30.9 °F 10.9 °F 33% 30.26 in 10.0 mi SW 10.4 mph - N/A   Overcast
11:54 AM 37.9 °F 29.6 °F 5.0 °F 25% 30.24 in 10.0 mi SW 13.8 mph - N/A   Overcast
12:54 PM 37.9 °F 29.6 °F 18.0 °F 45% 30.23 in 10.0 mi South 13.8 mph 19.6 mph N/A   Overcast
1:54 PM 41.0 °F 33.5 °F 19.9 °F 43% 30.19 in 10.0 mi South 13.8 mph 20.7 mph N/A   Overcast
2:54 PM 43.0 °F 35.7 °F 21.0 °F 42% 30.16 in 10.0 mi South 15.0 mph 26.5 mph N/A   Clear
3:54 PM 42.1 °F 32.8 °F 19.0 °F 40% 30.13 in 10.0 mi South 21.9 mph 28.8 mph N/A   Clear
4:54 PM 41.0 °F 30.9 °F 25.0 °F 53% 30.09 in 10.0 mi South 24.2 mph 31.1 mph N/A   Clear
5:54 PM 39.9 °F 30.2 °F 26.1 °F 58% 30.06 in 10.0 mi South 20.7 mph 31.1 mph N/A   Clear
6:54 PM 39.0 °F 29.6 °F 27.0 °F 62% 30.05 in 10.0 mi South 18.4 mph 33.4 mph N/A   Clear
7:54 PM 39.0 °F 30.3 °F 28.9 °F 67% 30.04 in 10.0 mi South 16.1 mph 25.3 mph N/A   Clear
8:54 PM 39.9 °F 31.4 °F 28.9 °F 65% 30.03 in 10.0 mi SSW 16.1 mph 25.3 mph N/A   Clear
9:54 PM 42.1 °F 33.1 °F 30.0 °F 62% 30.01 in 10.0 mi SSW 20.7 mph 25.3 mph N/A   Clear
10:54 PM 43.0 °F 34.5 °F 30.0 °F 60% 30.00 in 10.0 mi SSW 19.6 mph 27.6 mph N/A   Clear
11:54 PM 43.0 °F 35.1 °F 32.0 °F 65% 29.96 in 10.0 mi SSW 17.3 mph 27.6 mph N/A   Clear